Dewpoint
62 62 62 61 59 57 56 55 55 55 55 55 54 54 55 56 55 54 54 55 55 56 55 53 54 55 54 54 55 54 54 55 54 53 51 52 51 51 54 52 53 53 53 54 53 52 52 50 50 51 51 51 51 52 52 50 49 49 50 50 51 54 55
63 62 61 60 57 56 55 55 54 54 54 54 54 54 54 55 56 54 53 53 54 55 55 53 53 54 53 52 52 52 52 53 54 53 51 51 51 51 51 50 50 51 51 52 50 50 50 49 48 48 48 49 48 50 50 50 48 49 48 49 50 50 50
61 61 60 58 56 55 54 54 54 53 53 53 53 53 53 53 53 53 53 52 53 54 55 52 52 52 52 52 51 51 52 52 52 52 51 50 50 50 50 49 48 48 48 48 48 48 48 48 47 47 47 47 46 47 49 48 47 48 46 48 47 47 49
60 59 58 56 55 54 53 53 52 52 52 53 53 53 53 52 52 53 52 52 52 54 53 52 51 51 51 51 51 50 51 51 51 49 50 50 49 48 49 49 48 47 47 46 46 46 46 46 46 46 46 46 45 45 45 46 46 45 44 45 45 44 45
59 59 57 55 53 52 52 52 52 52 51 52 52 51 51 50 51 50 52 50 52 51 50 51 52 50 50 50 50 50 50 50 50 50 48 48 48 48 48 48 47 47 47 46 46 46 45 45 44 43 43 43 43 43 44 43 44 41 43 41 42 42 42
56 55 55 54 53 52 52 51 51 51 51 51 51 50 50 50 50 49 49 48 49 50 50 50 51 50 49 49 49 49 48 48 48 48 47 47 48 48 46 46 45 45 45 45 44 43 43 43 41 40 41 41 41 41 41 41 40 40 41 39 40 40 40
54 54 53 53 52 52 51 51 50 50 50 50 50 50 50 49 48 48 48 47 48 49 50 50 49 50 49 48 48 48 47 48 48 46 46 46 46 45 45 43 43 43 43 43 42 42 41 41 40 40 40 40 40 39 39 38 39 38 38 38 39 39 39
53 53 53 53 52 51 51 50 50 51 50 50 49 50 49 48 47 47 47 46 47 47 48 48 48 48 48 47 48 48 49 47 46 45 44 44 44 43 42 42 43 42 42 42 41 41 41 41 40 40 39 38 37 37 37 37 37 37 37 38 38 38 39
54 53 53 53 52 51 50 50 51 51 51 50 49 48 48 47 46 45 45 45 46 47 47 47 47 47 47 46 45 45 45 48 44 43 43 42 42 42 41 41 40 40 41 40 40 40 39 40 40 40 39 38 36 35 35 35 35 35 37 36 37 38 38
51 51 51 51 51 51 50 50 51 51 51 49 49 48 47 47 46 44 43 44 44 45 46 47 47 46 45 45 44 44 43 44 45 43 43 42 41 41 41 41 40 40 40 40 39 40 40 39 39 39 39 38 38 36 34 35 35 35 36 37 36 37 38
51 51 51 50 50 50 50 51 51 50 49 49 47 45 43 42 43 47 42 42 43 43 45 45 46 45 44 44 44 44 43 43 43 43 43 41 41 41 41 40 39 39 40 39 39 39 39 39 39 38 39 38 38 36 35 35 35 36 36 37 37 36 37
51 51 51 50 50 50 50 50 49 48 46 45 44 41 41 41 41 41 41 41 42 42 43 44 45 45 44 43 43 42 43 42 42 42 42 42 41 40 39 39 39 38 39 39 38 38 38 39 38 38 38 38 39 37 36 36 35 36 37 36 36 37 37
51 50 50 50 50 50 49 48 45 43 43 43 41 40 40 40 40 40 40 40 41 41 41 42 43 44 44 43 42 42 41 41 41 41 41 41 41 40 39 38 38 38 38 38 37 38 37 38 38 37 38 38 38 37 37 35 35 34 36 36 36 36 37
50 50 49 49 48 48 48 47 45 44 43 41 40 39 39 39 39 39 39 41 39 40 40 41 42 43 43 43 43 42 41 40 40 41 42 40 40 39 40 38 38 38 38 37 37 37 37 37 37 37 38 38 37 36 35 35 34 34 35 37 37 36 37
50 49 48 48 47 46 45 45 44 42 41 40 39 39 38 39 38 38 38 38 39 39 40 40 41 42 42 42 43 43 41 40 40 40 40 39 39 40 39 38 38 38 38 37 36 36 36 37 37 37 37 37 36 36 36 36 36 35 34 36 37 37 37
48 47 47 45 44 44 44 43 42 40 39 39 39 38 38 37 38 37 37 38 38 38 39 39 40 41 41 42 42 41 41 40 40 39 39 39 38 39 38 39 38 38 38 36 36 35 36 37 37 37 37 37 36 36 37 37 37 36 36 36 37 37 37
47 46 45 44 44 44 43 42 41 39 39 38 37 38 37 36 37 36 37 37 37 37 38 38 39 39 40 41 42 41 40 40 40 39 39 38 38 38 38 38 38 38 37 35 35 35 36 37 37 38 37 37 37 37 38 38 38 37 37 37 37 37 37
45 45 45 45 44 44 43 42 41 39 38 37 37 37 37 36 35 36 36 36 37 37 37 37 38 38 39 40 42 42 40 39 39 40 40 41 43 38 39 38 38 37 36 34 35 34 35 36 37 38 37 37 38 38 38 38 38 38 37 37 37 38 37
44 44 44 43 43 43 42 41 40 39 38 37 37 36 35 35 36 35 35 36 36 37 37 37 37 37 38 39 41 42 41 40 39 39 39 39 39 40 39 38 38 37 36 35 35 35 35 35 36 37 37 37 37 38 38 38 38 37 37 37 37 36 35
44 44 44 43 43 42 41 40 39 39 39 38 37 36 35 35 36 34 35 36 36 37 37 37 37 37 38 39 40 41 41 39 39 39 38 38 39 39 39 39 39 38 37 36 35 35 35 34 36 36 39 37 38 38 37 37 37 37 36 36 35 35 35
44 44 44 43 42 42 41 41 40 40 39 38 38 37 36 35 35 35 35 36 37 39 37 37 37 37 38 38 39 39 40 40 39 38 38 38 39 39 39 39 39 39 38 37 37 35 35 35 35 35 35 37 38 38 37 37 37 36 35 35 35 34 35
44 44 43 43 43 43 43 42 40 40 39 39 39 37 36 35 34 34 34 35 35 36 37 37 38 37 37 38 37 38 39 40 39 38 37 37 37 38 38 39 39 39 41 40 42 40 39 38 37 35 35 36 38 38 37 37 36 36 35 35 34 34 34
43 43 42 42 42 42 41 40 39 38 37 36 35 36 35 34 33 33 33 34 35 36 36 37 39 38 39 38 37 38 39 40 39 39 38 37 37 37 37 36 42 38 41 44 43 40 38 38 38 38 37 36 36 37 37 37 36 35 35 35 33 33 33
43 43 43 42 42 41 40 39 37 36 35 35 35 35 33 33 33 33 33 33 34 35 36 37 38 37 38 40 39 38 38 40 39 39 38 36 35 37 36 37 36 38 39 42 42 39 37 37 37 37 37 38 39 38 37 37 36 36 36 35 34 34 33
42 42 42 41 42 41 40 39 38 36 35 34 35 34 33 33 33 33 33 33 34 35 35 38 37 37 37 38 41 40 39 39 39 38 37 36 35 36 34 34 36 37 37 39 39 36 36 37 36 36 36 37 37 37 38 38 37 35 35 34 34 34 34
41 41 41 42 42 41 40 40 39 37 36 36 34 33 33 33 33 33 33 33 33 34 34 37 37 37 37 37 38 39 38 39 38 37 37 36 35 34 34 35 34 34 34 38 41 35 33 33 36 36 37 37 37 37 36 36 37 38 37 36 35 34 34
41 41 41 41 41 41 41 41 41 40 39 37 34 34 33 33 33 33 33 33 33 34 34 37 36 37 37 36 36 37 37 37 38 38 37 36 35 34 33 33 32 32 32 33 35 35 34 33 33 33 33 32 33 35 36 36 36 36 37 36 35 34 34
41 41 41 41 41 41 41 41 41 40 39 37 35 34 34 34 35 35 33 33 33 33 34 36 36 36 36 36 36 36 36 36 37 37 37 37 36 35 34 33 33 32 32 33 36 37 35 34 34 33 32 32 32 32 34 34 34 35 35 35 34 34 34
41 40 40 40 40 40 40 40 40 40 40 39 38 37 36 36 35 34 34 32 31 31 32 35 35 36 36 36 36 35 35 34 35 35 35 36 37 36 36 34 35 34 33 33 37 36 36 37 34 32 31 31 31 32 33 36 36 36 36 34 34 34 34
40 40 40 40 40 40 40 40 39 40 39 39 38 37 36 36 36 35 34 32 31 29 31 34 35 35 36 36 35 33 33 34 34 34 34 35 35 37 36 38 38 35 34 33 36 35 35 37 33 31 31 31 31 31 31 32 35 34 35 35 35 35 34
40 40 39 39 40 40 39 39 39 39 37 37 37 37 37 37 36 36 34 31 31 30 29 34 35 35 36 36 36 32 32 32 32 33 33 33 35 34 36 40 41 36 34 34 35 35 35 37 32 32 31 31 30 29 29 31 32 33 34 34 34 33 34
39 39 39 39 39 39 39 39 39 37 36 36 36 37 38 37 36 35 35 33 38 32 30 34 35 35 35 36 36 32 32 31 31 31 32 33 33 34 33 36 38 37 36 36 34 35 35 36 32 32 32 31 29 28 28 30 31 31 30 30 30 31 31
39 39 39 39 39 39 39 39 37 36 35 35 35 35 36 35 35 36 37 36 36 32 30 30 34 35 35 36 36 34 32 31 32 30 31 35 34 32 32 32 35 35 34 34 34 34 35 34 33 32 31 30 29 27 30 30 32 32 30 30 30 30 30
38 38 38 38 38 39 39 38 37 36 34 34 34 35 35 35 36 36 37 35 33 31 32 30 32 35 35 35 35 34 30 31 30 30 30 32 31 31 31 31 32 35 34 35 35 35 35 34 34 34 30 30 30 32 32 30 31 34 29 31 30 30 30
38 38 38 38 38 38 38 38 37 36 36 35 36 36 36 36 36 35 35 35 33 33 36 38 31 34 35 35 35 35 32 31 32 31 32 30 32 32 31 31 32 34 35 34 35 35 35 34 33 33 31 33 33 32 32 33 30 29 29 29 29 29 29
38 39 38 38 37 37 38 38 38 37 37 37 37 37 37 37 36 36 34 33 33 33 35 36 36 33 35 35 35 35 34 33 34 35 30 30 30 32 32 32 34 36 34 35 35 34 34 33 32 31 33 32 33 32 33 31 30 28 28 28 28 28 28
38 38 38 37 37 37 37 37 37 37 37 37 37 36 36 37 36 36 34 31 31 31 31 31 34 35 33 34 34 34 34 34 35 33 33 31 31 32 32 32 34 34 34 35 34 34 33 32 31 32 32 32 33 32 30 30 28 28 28 27 27 27 27